Home > Weather > Flagstaff > Past weeks

Flag for U.S.A. Weather for the Past 2 Weeks in Flagstaff, Arizona, U.S.A.

Now
52 °F

Sunny.


Feels Like: 48 °F
Forecast: 28 / 56 °F
Wind: 10 mph from East

Location: Flagstaff Pulliam Airport

Current Time: Feb 9, 2016 at 1:52:02 PM

Latest Report: Feb 9, 2016 at 12:57 PM


Visibility: 10 mi

Pressure: 30.29 "Hg (23.53 "Hg at 2103m altitude)

Humidity: 25%

Dew point: 17 °F

Location of FlagstaffLocation

Historic Weather in Flagstaff — Graph

°F

Flagstaff Temperature Yesterday

Maximum temperature yesterday: 50 °F (at 2:57 PM)
Minimum temperature yesterday: 34 °F (at 5:57 AM)
Average temperature yesterday: 42 °F

High & Low Weather Summary for the Past Weeks

 TemperatureHumidityPressure
High57 °F (Jan 28, 1:57 PM)100% (Jan 31, 9:57 PM)30.60 "Hg (Jan 31, 9:57 PM)
Low-9 °F (Feb 3, 6:57 AM)10% (Jan 28, 1:57 PM)29.36 "Hg (Feb 1, 2:57 AM)
Average28 °F57%30.20 "Hg
* Reported Jan 25 12:57 PM — Feb 9 12:57 PM, Flagstaff, Weather by CustomWeather, © 2016

Note: Actual official high and low records may vary slightly from our data, if they occured in-between our weather recording intervals... More about our weather records

Advertising

Flagstaff Weather History for the Previous 24 Hours

 ConditionsComfort  
Time TempWeatherWind HumidityBarometerVisibility
12:57 PM
Tue, Feb 9
52 °FSunny.10 mph25%30.29 "Hg10 mi
11:57 AM50 °FSunny.12 mph28%30.32 "Hg10 mi
10:57 AM48 °FSunny.13 mph29%30.35 "Hg10 mi
9:57 AM47 °FSunny.14 mph25%30.34 "Hg10 mi
8:57 AM44 °FSunny.14 mph31%30.33 "Hg10 mi
7:57 AM36 °FSunny.12 mph42%30.35 "Hg10 mi
6:57 AM32 °FClear.8 mph50%30.38 "Hg10 mi
5:57 AM25 °FClear.No wind66%30.40 "Hg10 mi
4:57 AM40 °FClear.6 mph33%30.30 "Hg10 mi
3:57 AM40 °FClear.13 mph36%30.29 "Hg10 mi
2:57 AM41 °FClear.13 mph33%30.29 "Hg10 mi
1:57 AM42 °FClear.15 mph32%30.30 "Hg10 mi
12:57 AM35 °FClear.8 mph52%30.35 "Hg10 mi
11:57 PM
Mon, Feb 8
39 °FClear.14 mph43%30.33 "Hg10 mi
10:57 PM38 °FClear.13 mph46%30.33 "Hg10 mi
9:57 PM43 °FClear.10 mph37%30.32 "Hg10 mi
8:57 PM45 °FClear.13 mph34%30.34 "Hg10 mi
7:57 PM45 °FClear.15 mph33%30.35 "Hg10 mi
6:57 PM44 °FClear.10 mph34%30.37 "Hg10 mi
5:57 PM45 °FSunny.13 mph34%30.36 "Hg10 mi
4:57 PM49 °FSunny.14 mph28%30.33 "Hg10 mi
3:57 PM50 °FSunny.21 mph26%30.31 "Hg10 mi
2:57 PM50 °FSunny.16 mph26%30.32 "Hg10 mi
1:57 PM49 °FSunny.17 mph27%30.35 "Hg10 mi
Weather by CustomWeather, © 2016

See weather overviewHow to use our weather pages